TimeCDT,TemperatureF,Dew PointF,Humidity,Sea Level PressureIn,VisibilityMPH,Wind Direction,Wind SpeedMPH,Gust SpeedMPH,PrecipitationIn,Events,Conditions,WindDirDegrees,DateUTC
12:15 AM,42.8,25.7,51,29.91,10.0,NE,6.9,-,N/A,,Clear,40,2013-04-12 05:15:00
12:35 AM,41.7,25.5,53,29.91,10.0,NE,5.8,-,N/A,,Clear,40,2013-04-12 05:35:00
12:55 AM,40.6,25.5,55,29.92,10.0,NE,5.8,-,N/A,,Clear,40,2013-04-12 05:55:00
1:15 AM,40.1,25.2,55,29.93,10.0,NNE,3.5,-,N/A,,Clear,30,2013-04-12 06:15:00
1:35 AM,39.0,25.2,58,29.93,10.0,NE,4.6,-,N/A,,Clear,40,2013-04-12 06:35:00
1:55 AM,38.3,24.8,58,29.93,10.0,NE,4.6,-,N/A,,Clear,40,2013-04-12 06:55:00
2:15 AM,38.5,25.2,59,29.93,10.0,NE,4.6,-,N/A,,Clear,40,2013-04-12 07:15:00
2:35 AM,38.8,25.5,59,29.93,10.0,NE,5.8,-,N/A,,Clear,50,2013-04-12 07:35:00
2:55 AM,38.8,25.0,58,29.93,10.0,NE,4.6,-,N/A,,Clear,40,2013-04-12 07:55:00
3:15 AM,34.7,23.7,64,29.93,10.0,NNE,4.6,-,N/A,,Clear,20,2013-04-12 08:15:00
3:35 AM,33.1,23.2,67,29.94,10.0,Calm,Calm,-,N/A,,Clear,0,2013-04-12 08:35:00
3:55 AM,35.8,24.4,63,29.94,10.0,Calm,Calm,-,N/A,,Clear,0,2013-04-12 08:55:00
4:15 AM,33.3,23.5,68,29.95,10.0,NNE,4.6,-,N/A,,Clear,20,2013-04-12 09:15:00
4:35 AM,35.8,24.8,64,29.94,10.0,North,4.6,-,N/A,,Clear,360,2013-04-12 09:35:00
4:55 AM,35.8,24.6,64,29.95,10.0,North,4.6,-,N/A,,Clear,10,2013-04-12 09:55:00
5:15 AM,35.6,24.8,65,29.95,10.0,North,5.8,-,N/A,,Clear,360,2013-04-12 10:15:00
5:35 AM,34.7,25.2,68,29.94,10.0,NNE,8.1,-,N/A,,Clear,20,2013-04-12 10:35:00
5:55 AM,34.5,24.4,67,29.95,10.0,Calm,Calm,-,N/A,,Clear,0,2013-04-12 10:55:00
6:15 AM,35.8,25.3,66,29.95,10.0,NNE,3.5,-,N/A,,Clear,20,2013-04-12 11:15:00
6:35 AM,34.5,25.0,68,29.95,10.0,North,3.5,-,N/A,,Clear,350,2013-04-12 11:35:00
6:55 AM,34.0,25.2,70,29.96,10.0,North,3.5,-,N/A,,Clear,350,2013-04-12 11:55:00
7:15 AM,35.1,26.2,70,29.96,10.0,Calm,Calm,-,N/A,,Clear,0,2013-04-12 12:15:00
7:35 AM,35.6,26.6,70,29.97,10.0,NNE,3.5,-,N/A,,Clear,20,2013-04-12 12:35:00
7:55 AM,35.4,26.6,70,29.98,10.0,North,3.5,-,N/A,,Clear,350,2013-04-12 12:55:00
8:15 AM,34.7,26.6,72,29.98,10.0,North,3.5,-,N/A,,Clear,350,2013-04-12 13:15:00
8:35 AM,37.2,28.4,70,29.98,10.0,Calm,Calm,-,N/A,,Clear,0,2013-04-12 13:35:00
8:55 AM,39.2,28.9,67,29.98,10.0,Calm,Calm,-,N/A,,Clear,0,2013-04-12 13:55:00
9:15 AM,40.6,30.4,67,29.98,10.0,Calm,Calm,-,N/A,,Clear,0,2013-04-12 14:15:00
9:55 AM,47.3,30.0,51,30.00,10.0,East,5.8,-,N/A,,Clear,90,2013-04-12 14:55:00
10:15 AM,48.6,30.0,49,30.00,10.0,ESE,5.8,-,N/A,,Clear,120,2013-04-12 15:15:00
10:35 AM,49.8,29.8,46,30.00,10.0,ESE,5.8,-,N/A,,Clear,110,2013-04-12 15:35:00
10:55 AM,51.3,29.5,43,30.00,10.0,SE,4.6,-,N/A,,Clear,130,2013-04-12 15:55:00
11:35 AM,54.1,29.7,39,29.98,10.0,SE,9.2,-,N/A,,Clear,140,2013-04-12 16:35:00
11:55 AM,55.0,29.1,37,29.98,10.0,SE,11.5,16.1,N/A,,Clear,130,2013-04-12 16:55:00
12:15 PM,56.7,28.6,34,29.97,10.0,SE,12.7,17.3,N/A,,Clear,140,2013-04-12 17:15:00
12:35 PM,57.0,28.8,34,29.97,10.0,SE,10.4,-,N/A,,Clear,130,2013-04-12 17:35:00
12:55 PM,59.4,25.7,28,29.97,10.0,SE,16.1,20.7,N/A,,Clear,140,2013-04-12 17:55:00
1:15 PM,59.0,26.6,29,29.96,10.0,SE,13.8,20.7,N/A,,Clear,130,2013-04-12 18:15:00
1:35 PM,59.5,26.2,28,29.95,10.0,SSE,10.4,18.4,N/A,,Clear,150,2013-04-12 18:35:00
1:55 PM,61.7,27.0,27,29.94,10.0,SSE,11.5,21.9,N/A,,Clear,150,2013-04-12 18:55:00
2:15 PM,63.7,27.3,25,29.93,10.0,SE,16.1,27.6,N/A,,Clear,140,2013-04-12 19:15:00
2:35 PM,64.2,26.6,24,29.91,10.0,SSE,11.5,-,N/A,,Clear,150,2013-04-12 19:35:00
2:55 PM,65.8,25.2,21,29.91,10.0,South,13.8,21.9,N/A,,Clear,180,2013-04-12 19:55:00
3:35 PM,66.9,26.4,22,29.90,10.0,SW,19.6,27.6,N/A,,Clear,220,2013-04-12 20:35:00
3:55 PM,65.8,26.1,22,29.88,10.0,SSE,9.2,-,N/A,,Clear,150,2013-04-12 20:55:00
4:15 PM,67.3,25.7,21,29.87,10.0,SSW,10.4,19.6,N/A,,Clear,200,2013-04-12 21:15:00
4:35 PM,68.4,26.1,20,29.86,10.0,South,9.2,17.3,N/A,,Clear,180,2013-04-12 21:35:00
4:55 PM,68.9,26.1,20,29.86,10.0,SSW,11.5,20.7,N/A,,Clear,210,2013-04-12 21:55:00
5:15 PM,68.9,26.4,20,29.85,10.0,South,5.8,18.4,N/A,,Clear,190,2013-04-12 22:15:00
5:35 PM,68.7,26.4,20,29.84,10.0,South,12.7,16.1,N/A,,Clear,170,2013-04-12 22:35:00
5:55 PM,69.8,27.0,20,29.83,10.0,South,8.1,18.4,N/A,,Clear,180,2013-04-12 22:55:00
6:15 PM,68.9,27.1,21,29.83,10.0,SSE,11.5,18.4,N/A,,Clear,150,2013-04-12 23:15:00
6:35 PM,67.6,28.4,23,29.83,10.0,SE,15.0,-,N/A,,Clear,140,2013-04-12 23:35:00
6:55 PM,66.6,28.2,24,29.83,10.0,SSE,15.0,-,N/A,,Clear,150,2013-04-12 23:55:00
7:15 PM,64.9,28.2,25,29.83,10.0,SSE,16.1,23.0,N/A,,Clear,150,2013-04-13 00:15:00
7:35 PM,62.6,28.4,27,29.83,10.0,SE,19.6,-,N/A,,Clear,140,2013-04-13 00:35:00
7:55 PM,60.8,28.9,30,29.84,10.0,SE,15.0,-,N/A,,Clear,130,2013-04-13 00:55:00
8:15 PM,59.0,28.8,32,29.85,10.0,SE,13.8,-,N/A,,Clear,130,2013-04-13 01:15:00
8:35 PM,57.0,28.9,34,29.85,10.0,SE,15.0,-,N/A,,Clear,140,2013-04-13 01:35:00
8:55 PM,55.8,29.1,36,29.86,10.0,SE,16.1,-,N/A,,Clear,140,2013-04-13 01:55:00
9:15 PM,54.7,28.9,37,29.87,10.0,SE,13.8,-,N/A,,Clear,140,2013-04-13 02:15:00
9:35 PM,53.2,29.3,40,29.88,10.0,SE,13.8,-,N/A,,Clear,140,2013-04-13 02:35:00
9:55 PM,52.3,29.8,42,29.89,10.0,SE,12.7,-,N/A,,Clear,140,2013-04-13 02:55:00
10:15 PM,52.5,31.1,44,29.91,10.0,SE,13.8,-,N/A,,Clear,130,2013-04-13 03:15:00
10:35 PM,51.8,32.0,47,29.92,10.0,ESE,12.7,17.3,N/A,,Clear,120,2013-04-13 03:35:00
10:55 PM,51.1,32.4,49,29.93,10.0,ESE,13.8,-,N/A,,Clear,120,2013-04-13 03:55:00
11:15 PM,50.0,32.9,52,29.93,10.0,ESE,12.7,-,N/A,,Clear,120,2013-04-13 04:15:00
11:35 PM,49.5,34.2,56,29.95,10.0,East,10.4,-,N/A,,Clear,100,2013-04-13 04:35:00
11:55 PM,48.6,34.5,58,29.96,10.0,East,10.4,-,N/A,,Clear,100,2013-04-13 04:55:00